User: anonymous   Login
Location: Wildcat Hills Observatory
(41.6350°N, 103.6812°W)
Time: 19:30:48
(UTC-06:00)
Language:

Cosmos 1634 Rocket - Orbit

View from above orbital plane
View from above orbital plane
View from above satellite
View from above satellite

Ground track
Ground track

The orbit data is extracted from the following two-line orbital elements,

1 15598U 85022B   16236.23954484  .00000055  00000-0  40841-4 0  9993
2 15598  82.9403 328.5651 0021367 219.6590 195.7653 13.76539874579478
Epoch (UTC): 23 August 2016 05:44:56
Eccentricity: 0.0021367
inclination: 82.9403°
perigee height: 960 km
apogee height: 992 km
right ascension of ascending node: 328.5651°
argument of perigee: 219.6590°
revolutions per day: 13.76539874
mean anomaly at epoch: 195.7653°
orbit number at epoch: 57947

The dashed part of the orbit path shows where the satellite is in the earth's shadow,  

DLR